Tracking 29892 objects as of 21-Nov-2024
HD Live streaming from Space Station
objects crossing your sky now

STARLINK-2609

Track STARLINK-2609 now!
10-day predictions
STARLINK-2609 is classified as:


NORAD ID: 48373
Int'l Code: 2021-038W
Perigee: 552.8 km
Apogee: 555.9 km
Inclination: 53.1 °
Period: 95.6 minutes
Semi major axis: 6925 km
RCS: Unknown
Launch date: May 4, 2021
Source: United States (US)
Launch site: AIR FORCE EASTERN TEST RANGE (AFETR)
Your satellite tracking list
Your tracking list is empty




NASA's NSSDC Master Catalog

Two Line Element Set (TLE):
1 48373U 21038W   24325.50656456  .00017032  00000-0  11592-2 0  9995
2 48373  53.0535 320.3065 0002229  99.8636 260.2605 15.06411145196288
Source of the keplerian elements: AFSPC